FENGYUN 1C DEB

Satellite information

Favourite Embed

Satellite Type and Status

DEBRISIN ORBIT

Key statistics

Satellite FENGYUN 1C DEB at a glance.

Uptime

9496

Days in orbit

Revolutions

≈ 14.4

Per day

Orbit

SSO

Sun Synchronous Orbit

Inclination

99.3

Latest

Satellite identification and parameters

Extended collection of information and parameters for FENGYUN 1C DEB.

Object identification

Identified? True

Debris? True

Object name: FENGYUN 1C DEB

International designator: 1999-025AWG

Object number (NORAD): 30846

Object ID (CCSDS): 30846

Country: PEOPLES REPUBLIC OF CHINA (PRC)

Current information (Y/N): Y

RCS size: SMALL

Orbital parameters

Period: 99.985 minutes

Inclination: 99.3062 deg

SMA: 7135.923 km

Apoapsis: 796.74 km

Periapsis: 718.837 km

RAAN: 281.4809 deg

Eccentricy: 0.0054585

Argument of periapsis: 256.0873 deg

Mean anomaly: 232.5865 deg

Mean motion: 14.40215638 rev/day

Mean motion (dot): 0.00002741 rev/day2

B* drag term: 0.0008674 1/REarth

Two-line elements (TLE)

Creation date: May 8, 2025, 3:01 a.m.

Reference frame: TEME

Reference center: EARTH

Epoch: May 7, 2025, 4:03 p.m. UTC

TLE line 0: 0 FENGYUN 1C DEB

TLE line 1: 1 30846U 99025AWG 25127.66905569 .00002741 00000-0 86740-3 0 9991

TLE line 2: 2 30846 99.3062 281.4809 0054585 256.0873 232.5865 14.40215638947759

Live tracking on map

Real-time ground track for satellite FENGYUN 1C DEB.

In-orbit conjunctions

A list of the most updated potential collisions computed for object FENGYUN 1C DEB.

Target Orbit TCA Probability of collision Miss distance Type
CZ-2D R/B SSO 2025-03-11 00:42:01 0.0001313752 984.0 (m) ROCKET BODY
CZ-6A DEB LEO 2025-02-27 03:17:35 0.0002866083 508.0 (m) DEBRIS
SL-3 R/B LEO 2025-02-12 00:03:05 0.0002717454 689.0 (m) ROCKET BODY
CZ-6A DEB LEO 2025-01-22 21:11:09 0.000214375 784.0 (m) DEBRIS
CZ-6A DEB LEO 2024-12-23 16:17:53 0.000184204 514.0 (m) DEBRIS

Associated space launch

Chinese polar orbiting meteorological satellite

FENGYUN 1C DEB was lifted into orbit during the mission ‘Long March 4B | Feng Yun 1C’, on board a Long March 4B space rocket.

The launch took place on May 10, 1999, 1:33 a.m. from Launch Complex 7.

For more information about the launch, click the button.

Launch to space Long March 4B | Feng Yun 1C
Long March 4B | Feng Yun 1C

Agency: N/A

Status: Launch Successful

Launch date: May 10, 1999, 1:33 a.m. UTC

Rocket: Long March 4B

Launch pad: Launch Complex 7

Location: Taiyuan Satellite Launch Center, People's Republic of China

...

Latest news about this satellite

There are no fresh news available about this satellite. Check back as we update our databases every day.


Newsletter sign-up

Weekly statistics, charts and insights to help you stay on top of the space industry.